Location: Unspecified
(44.0704°N, 88.6889°W)
Time: 18:57:15
(UTC+02:00)

Transit 2A - Pass Details

Date: 18 June 2019
Orbit: 596 x 962 km, 66.7° (Epoch: 16 August)

Event Time Altitude Azimuth Distance (km) Brightness Sun altitude
Rises 14:58:39 0° 331° (NNW) 3,561 9.2 27.0°
Maximum altitude 15:05:00 10° 20° (NNE) 2,503 9.1 28.2°
Drops below altitude 10° 15:05:07 10° 21° (NNE) 2,501 9.1 28.2°
Sets 15:10:59 0° 69° (ENE) 3,296 10.4 29.2°
